Torna al catalogo

GOSAT

IBUKI

AttivoScienzaSSO
NORAD 33492·PAYLOAD·🇯🇵 Japan

Lanciato Jan 23, 2009 da Tanegashima Space Center

Loading…

Prossimi Passaggi (prossime 24 ore)

TLE

AggiornatoSource: Space-Track

Epoca: Sep 14, 2026, 14:14 UTC

1 33492U 09002A   26257.59342708  .00000455  00000-0  88717-4 0  9991
2 33492  98.0957   7.5836 0001620  98.0850 262.0539 14.67536162944576

Traccia GOSAT in tempo reale con AllMySat

Download on the App Store